Location: Unspecified
(0.0000°N, 0.0000°E)
Time: 21:19:37
(UTC+01:00)

IUS-9 SRM-1 - Visible Passes

Search period start: 03 March 2015 00:00
Search period end: 13 March 2015 00:00
Orbit: 264 x 20476 km, 26.5° (Epoch: 02 March)

Date Brightness Start Highest point End Pass type
(mag) Time Alt. Az. Time Alt. Az. Time Alt. Az.
03 Mar 6.9 17:36:58 10° WNW 21:57:29 86° SSW 22:14:03 49° SE visible
04 Mar 6.9 17:34:52 10° WNW 21:55:09 85° SSW 22:12:15 48° SE visible
05 Mar 6.9 17:32:38 10° WNW 21:52:43 84° SSW 22:10:23 46° SE visible
06 Mar 6.9 17:30:19 10° WNW 21:50:11 83° SSW 22:08:25 45° SE visible
07 Mar 6.9 17:27:55 10° WNW 21:47:34 82° SSW 22:06:23 44° SE visible
08 Mar 6.9 17:25:25 10° WNW 21:44:51 82° SSW 22:04:15 42° SE visible
09 Mar 6.9 17:22:49 10° WNW 21:42:02 81° SSW 22:02:03 41° SE visible
10 Mar 7.0 17:20:07 10° WNW 21:39:06 80° SSW 21:59:47 39° SE visible
11 Mar 7.0 17:17:20 10° WNW 21:36:05 79° SSW 21:57:25 38° SE visible
12 Mar 7.0 17:14:27 10° WNW 21:32:59 79° SSW 21:54:58 37° SE visible
